[Iaude] MPEC R05: 2019 QS6 [a=1.15,e=0.10,i=6.0,H=26.0]

mpec at marsden.cfa.harvard.edu mpec at marsden.cfa.harvard.edu
Sun Sep 1 08:45:27 EDT 2019


M.P.E.C. 2019-R05                                Issued 2019 September 1, 12:44 UT  

     The Minor Planet Electronic Circulars contain information on unusual
         minor planets and routine data on comets.  They are published
    on behalf of Division F of the International Astronomical Union by the
          Minor Planet Center, Smithsonian Astrophysical Observatory,
                          Cambridge, MA 02138, U.S.A.

             Prepared using the Tamkin Foundation Computer Network

                              MPC at CFA.HARVARD.EDU
            URL https://www.minorplanetcenter.net/    ISSN 1523-6714

                                    2019 QS6                                    


Observations:
     K19Q06S* C2019 08 30.38469 00 54 14.88 +17 11 28.0          21.1 GVER005G96
     K19Q06S  C2019 08 30.38985 00 54 13.74 +17 11 57.6          21.5 GVER005G96
     K19Q06S  C2019 08 30.39501 00 54 12.60 +17 12 27.7          21.1 GVER005G96
     K19Q06S  C2019 08 30.40016 00 54 11.42 +17 12 58.2          21.2 GVER005G96
     K19Q06S  C2019 08 30.46945 00 53 55.99 +17 19 39.0          20.9 GVER005I52
     K19Q06S  C2019 08 30.47278 00 53 55.33 +17 19 58.3          21.4 GVER005I52
     K19Q06S  C2019 08 30.47612 00 53 54.51 +17 20 17.3                VER005I52
     K19Q06S  C2019 08 30.47945 00 53 53.82 +17 20 36.4          21.8 GVER005I52
     K19Q06S  C2019 09 01.42463 00 48 28.36 +20 22 08.1          20.9 GVER005G96
     K19Q06S  C2019 09 01.42608 00 48 27.99 +20 22 15.1                VER005G96
     K19Q06S  C2019 09 01.42897 00 48 27.32 +20 22 30.8          20.8 GVER005G96

Observer details:
G96 Mt. Lemmon Survey.  Observers D. Rankin, D. C. Fuls.  Measurers B. M. 
   Africano, E. J. Christensen, G. A. Farneth, D. C. Fuls, A. R. Gibbs, A. D. 
   Grauer, H. Groeller, R. A. Kowalski, S. M. Larson, G. J. Leonard, T. A. 
   Pruyne, D. Rankin, R. L. Seaman, F. C. Shelly.  1.5-m reflector + 10K CCD.
I52 Steward Observatory, Mt. Lemmon Station.  Observer G. J. Leonard.  
    Measurers B. M. Africano, E. J. Christensen, G. A. Farneth, D. C. Fuls, A. 
   R. Gibbs, A. D. Grauer, H. Groeller, R. A. Kowalski, S. M. Larson, G. J. 
   Leonard, T. A. Pruyne, D. Rankin, R. L. Seaman, F. C. Shelly.  1.0-m 
   reflector + CCD.

Orbital elements:
2019 QS6                                                 Earth MOID = 0.0341 AU
Epoch 2019 Apr. 27.0 TT = JDT 2458600.5                 Veres
M 283.64593              (2000.0)            P               Q
n   0.79872073     Peri.  336.39052     +0.64048730     +0.76654385
a   1.1504632      Node   333.36462     -0.68693781     +0.54462145
e   0.0959569      Incl.    5.98704     -0.34335472     +0.34029105
P   1.23           H   26.0           G   0.15           U   8
Residuals in seconds of arc
190830 G96  0.1-  0.5+    190830 I52  0.2-  0.1-    190901 G96  0.4+  0.4+
190830 G96  0.0   0.2-    190830 I52  0.8+  0.1+    190901 G96  0.1-  0.4-
190830 G96  0.2+  0.4-    190830 I52  0.5-  0.0     190901 G96  0.3-  0.0
190830 G96  0.2-  0.0     190830 I52  0.0   0.1+

2019 QS6                                                                        
Epoch 2019 Apr. 27.0 TT = JDT 2458600.5                 Veres                   
M 283.64593              (2000.0)            P               Q                  
n   0.79872073     Peri.  336.39052     +0.64048730     +0.76654385             
a   1.1504632      Node   333.36462     -0.68693781     +0.54462145             
e   0.0959569      Incl.    5.98704     -0.34335472     +0.34029105             
P   1.23           H   26.0           G   0.15           U   8                  
>From 11 observations 2019 Aug. 30-Sept. 1, mean residual 0".30.                 
                                                                                
Ephemeris:
2019 QS6                 a,e,i = 1.15, 0.10, 6                   q = 1.0401
Date    TT    R. A. (2000) Decl.     Delta      r    Elong.  Phase     V
2019 08 02    01 43 20.8 -36 08 10   0.06008 1.0399   113.0    64.0    22.2
...
2019 08 17    01 24 55.0 -08 30 09   0.05145 1.0433   125.5    52.2    21.6
...
2019 08 25    01 08 09.3 +07 38 31   0.05271 1.0474   132.6    45.2    21.4
...
2019 08 31    00 52 31.4 +18 11 13   0.05656 1.0515   136.6    41.3    21.5
2019 09 01    00 49 42.6 +19 44 15   0.05743 1.0522   137.1    40.8    21.5
2019 09 02    00 46 51.1 +21 13 23   0.05836 1.0530   137.6    40.3    21.5
...
2019 09 08    00 29 10.8 +28 44 36   0.06505 1.0581   139.7    38.0    21.7
...
2019 09 16    00 05 59.2 +35 18 27   0.07643 1.0660   141.0    36.4    22.0
...
2019 10 01    23 32 09.0 +39 45 15   0.1033  1.0838   141.1    35.5    22.7

A. U. Tomatic                (C) Copyright 2019 MPC           M.P.E.C. 2019-R05




More information about the Iaude mailing list